Wind_Speed
9 9 8 8 8 9 9 9 8 8 7 8 8 8 7 7 7 7 6 7 7 7 7 7 7 8 8 8 9 8 8 8 7 7 7 7 7 6 5 5 6 6 6 6
9 9 9 9 9 10 10 10 9 9 9 9 8 8 7 7 7 7 7 7 7 8 8 8 7 7 8 8 9 8 8 8 7 7 7 7 6 6 5 5 6 6 5 5
9 9 9 9 10 11 11 10 10 10 9 9 9 8 8 8 8 8 8 8 8 8 8 8 8 8 8 8 9 9 8 8 7 7 7 7 6 6 6 6 6 6 5 5
10 10 10 10 11 11 11 11 11 11 11 10 10 9 8 8 7 8 8 9 8 8 8 8 8 9 9 9 9 8 8 8 8 7 7 7 6 6 6 6 6 5 5 5
10 11 11 11 11 12 12 12 12 13 12 12 11 11 10 9 8 9 9 9 9 9 9 9 9 9 9 9 9 9 8 8 7 7 7 7 7 7 6 6 5 5 5 5
11 12 12 12 12 12 13 13 13 13 13 13 12 12 11 10 9 10 10 10 11 10 10 10 10 10 10 10 9 9 9 8 8 8 7 7 8 7 7 6 6 5 5 5
12 12 12 12 13 13 13 13 14 14 14 13 13 14 12 11 10 10 10 11 12 11 11 11 11 10 11 10 10 10 10 9 9 8 8 8 8 7 7 7 7 6 6 6
12 12 12 12 12 13 13 14 15 15 14 13 14 15 13 12 11 11 11 12 12 11 11 11 11 11 12 12 11 10 10 11 10 10 9 9 9 9 8 8 8 8 7 7
12 12 13 13 12 13 14 14 15 16 16 16 16 15 14 13 12 12 12 13 13 13 13 13 13 13 13 13 12 12 12 11 11 11 11 11 10 10 9 9 9 9 9 9
13 13 13 14 14 14 15 15 16 17 17 17 17 16 15 15 14 14 14 14 15 15 15 15 15 14 14 14 15 14 13 13 12 13 12 12 12 11 11 11 11 11 10 10
15 15 14 15 16 16 17 17 17 18 19 19 19 17 17 17 17 17 16 16 16 16 16 16 17 16 15 16 16 15 15 14 14 14 14 14 14 13 13 12 12 12 12 12
16 17 17 17 17 18 19 19 19 19 20 21 22 20 18 19 19 19 18 18 17 17 18 18 18 18 17 17 16 16 16 16 16 16 16 16 15 15 14 14 13 13 14 14
18 19 19 19 19 20 20 20 20 20 21 22 23 21 20 21 21 20 20 19 20 20 20 19 19 19 19 18 17 17 17 17 17 17 18 18 17 17 16 16 15 15 15 15
19 20 20 20 21 22 22 22 21 22 22 23 23 22 21 21 21 21 21 22 22 22 22 21 21 21 20 19 19 19 19 19 19 19 19 19 19 19 18 18 18 17 17 16
19 20 21 21 21 22 23 23 23 23 23 24 23 23 22 22 23 23 23 24 24 24 24 23 22 22 22 21 21 21 21 21 21 20 20 20 20 20 19 19 19 19 18 18
20 20 21 21 22 23 24 23 23 24 24 24 24 24 23 24 24 25 25 25 25 25 25 24 24 23 23 23 23 23 22 22 22 21 20 20 21 20 19 20 20 20 20 19
21 21 22 22 22 23 24 23 24 25 25 25 25 25 25 25 25 26 26 25 25 25 25 25 24 24 24 25 24 24 24 23 23 22 22 22 22 22 22 21 21 21 20 20
23 23 23 23 23 24 22 24 25 25 24 24 24 24 25 25 25 26 26 26 26 26 25 25 25 24 23 24 24 24 24 23 23 23 22 22 22 22 23 23 22 21 21 21
24 24 25 25 25 24 22 23 24 25 24 23 24 24 25 25 25 25 25 26 26 26 25 25 25 24 23 24 23 23 23 23 23 23 22 22 22 22 23 22 22 22 21 21
24 25 26 25 25 24 22 23 24 25 25 23 24 24 25 25 25 25 25 26 25 25 25 25 24 24 24 24 24 23 23 22 22 22 22 22 22 22 22 21 22 22 22 22
24 25 25 25 25 24 23 23 24 24 24 23 24 24 24 25 25 25 25 25 25 24 23 23 23 24 24 24 24 23 22 22 22 22 22 22 22 22 22 22 23 23 23 23
24 24 25 25 25 24 24 24 24 23 23 23 24 24 24 24 24 24 24 23 23 23 23 23 23 24 24 24 23 23 22 23 23 23 23 23 23 23 24 24 25 24 25 25
24 24 25 25 25 25 24 24 24 24 24 24 24 24 23 23 23 23 23 23 24 24 24 24 24 24 24 24 23 23 22 22 23 23 23 24 24 25 26 26 26 26 26 26
24 25 25 25 24 25 24 24 24 25 25 25 25 24 23 23 23 24 23 24 24 24 23 24 24 24 24 24 24 24 23 22 23 23 24 24 25 26 27 28 28 28 27 28
24 25 25 25 25 26 25 24 25 25 25 26 26 26 25 25 24 24 23 24 25 24 24 24 24 24 24 24 24 25 24 25 25 25 26 26 26 27 27 28 28 28 28 28
24 25 26 26 26 26 25 25 25 26 26 26 26 27 26 26 26 25 24 25 25 25 25 26 25 24 24 24 25 26 26 26 26 26 26 27 27 27 27 28 29 29 29 30
Wind_Direction
266 267 272 276 274 272 271 269 270 273 274 274 276 280 287 292 295 299 302 304 303 300 302 307 314 318 319 320 320 319 315 314 313 313 313 315 310 309 309 304 297 291 284 279
267 267 269 271 275 277 275 272 272 271 273 273 273 278 282 290 294 298 301 299 297 297 298 303 310 315 316 316 316 315 313 312 311 313 313 309 307 308 307 310 306 297 288 284
269 271 270 272 277 279 277 275 275 275 276 276 275 275 280 287 296 300 301 301 297 293 293 296 300 306 310 313 314 312 312 307 304 306 310 307 306 307 310 308 306 299 292 289
270 270 271 274 278 277 275 274 273 273 275 274 275 273 274 278 286 290 293 297 294 291 290 292 293 298 301 304 309 308 306 305 303 301 304 306 305 304 310 311 304 300 293 287
272 272 271 273 277 279 278 274 272 273 273 271 273 273 274 271 278 282 286 293 292 288 287 287 289 292 295 298 303 303 301 299 298 298 298 299 297 297 303 305 304 300 293 288
273 274 275 275 276 278 279 277 275 272 271 268 272 274 274 274 280 282 285 291 291 288 285 283 284 286 290 294 297 297 295 295 294 294 293 292 292 290 292 294 295 301 301 288
271 273 274 274 274 275 278 277 275 272 269 271 273 274 278 279 279 280 282 286 288 286 284 280 278 281 287 291 293 291 288 287 289 288 286 286 287 284 281 282 284 290 297 289
274 274 274 274 276 279 279 276 277 278 276 273 272 274 275 274 273 277 280 282 282 284 283 281 279 279 282 284 285 288 285 282 283 284 284 280 279 279 280 277 278 283 287 287
277 275 276 278 279 278 279 278 278 278 277 275 274 274 272 269 270 271 275 279 279 280 282 282 279 277 279 281 283 283 282 280 279 279 282 280 277 277 279 279 278 279 282 282
277 275 272 275 274 274 278 278 277 277 277 276 275 274 274 272 272 270 271 276 278 277 277 278 278 277 275 275 277 277 275 276 275 275 275 276 274 274 275 278 278 279 280 281
276 275 273 274 274 275 276 274 274 275 275 277 277 274 272 272 272 271 273 275 275 273 272 275 276 276 275 273 272 276 275 273 271 271 272 274 272 269 270 272 274 277 278 277
276 277 276 275 275 274 274 275 275 274 273 273 274 273 273 273 273 273 273 274 275 271 270 272 273 274 274 272 275 277 276 273 271 271 272 272 272 270 268 270 271 274 275 273
277 277 277 276 275 274 275 276 276 275 273 273 272 273 272 271 272 272 273 275 276 273 272 272 274 272 271 271 272 273 274 274 273 273 271 270 268 267 268 270 271 271 271 272
278 277 277 278 277 276 276 275 275 275 276 277 274 274 272 269 270 272 273 274 273 271 273 271 271 271 270 269 268 270 271 271 272 272 271 269 268 266 266 267 269 269 269 269
278 278 278 277 276 276 277 277 277 277 278 279 278 275 276 273 270 271 272 271 271 271 271 269 268 268 270 269 268 268 269 270 271 270 269 267 267 267 265 265 267 268 269 268
278 279 278 278 278 277 278 279 277 276 277 278 277 276 276 274 271 271 272 272 271 270 269 270 268 266 268 268 268 269 269 270 271 271 269 266 266 267 265 265 266 267 266 267
276 278 279 279 279 279 279 278 275 275 276 278 277 275 274 273 271 272 273 272 272 271 270 269 270 266 267 266 267 267 268 269 270 270 268 266 268 267 266 266 266 266 265 265
278 279 280 281 279 278 283 278 277 279 278 279 278 278 277 275 273 272 273 273 273 272 272 272 271 269 269 269 267 267 267 267 266 268 267 267 268 267 266 266 266 266 264 264
278 280 282 282 281 281 280 279 279 279 278 278 278 278 278 276 273 271 271 272 273 273 272 273 273 271 270 269 269 269 267 267 266 266 267 268 268 267 267 266 265 262 261 262
277 279 281 283 282 282 281 280 280 279 276 277 277 277 277 275 272 270 269 270 270 271 273 272 271 271 272 271 270 268 266 265 264 265 265 266 268 269 269 268 265 263 262 262
277 279 280 282 283 283 282 281 281 280 279 278 278 278 279 278 274 269 269 269 271 273 273 270 269 270 271 270 268 267 265 263 263 264 264 266 267 268 269 267 265 264 264 263
277 278 280 281 282 283 281 280 281 282 281 280 279 280 280 277 273 270 270 269 270 270 271 271 270 270 270 269 267 265 263 262 262 264 264 265 267 268 269 268 266 265 265 264
277 278 279 280 282 282 282 281 281 281 281 282 282 281 280 277 273 271 270 269 269 270 271 271 270 270 269 268 266 265 265 264 264 265 266 267 268 269 269 268 267 266 265 265
278 278 279 279 280 281 283 283 283 284 283 282 282 281 279 277 275 274 271 270 269 269 271 270 270 270 269 267 265 266 267 266 265 265 266 268 268 268 269 268 267 266 266 265
277 276 278 279 280 280 282 283 282 282 282 282 282 279 278 277 274 272 270 269 270 269 269 270 270 270 268 266 265 266 268 267 265 265 265 267 268 269 269 268 267 266 265 265
275 274 275 277 279 280 282 282 282 282 280 280 279 277 278 277 275 271 271 269 268 268 268 268 269 270 269 269 269 268 268 268 266 265 265 267 269 270 270 270 268 266 265 265
Height
5864 5865 5864 5863 5863 5862 5862 5861 5861 5861 5861 5860 5860 5859 5859 5858 5858 5857 5856 5856 5855 5854 5854 5853 5852 5851 5850 5849 5848 5847 5846 5844 5843 5842 5841 5840 5839 5838 5837 5836 5835 5834 5834 5833
5863 5862 5862 5861 5860 5860 5859 5859 5858 5858 5858 5858 5857 5857 5857 5856 5855 5855 5854 5854 5853 5852 5851 5850 5850 5849 5848 5847 5846 5845 5844 5843 5842 5841 5839 5838 5837 5836 5835 5835 5834 5833 5832 5832
5860 5860 5859 5858 5857 5857 5857 5856 5856 5855 5855 5855 5854 5855 5854 5853 5853 5852 5852 5851 5850 5850 5849 5848 5848 5847 5846 5845 5844 5843 5842 5841 5840 5839 5838 5837 5836 5835 5834 5833 5832 5831 5831 5830
5857 5856 5856 5855 5855 5854 5854 5853 5853 5852 5852 5852 5852 5851 5852 5851 5850 5849 5849 5848 5848 5847 5847 5846 5845 5844 5844 5843 5842 5841 5840 5839 5838 5837 5836 5835 5834 5833 5833 5832 5831 5830 5829 5829
5854 5853 5853 5852 5852 5851 5851 5850 5849 5849 5848 5848 5848 5848 5849 5847 5847 5846 5846 5845 5844 5844 5844 5843 5842 5842 5841 5841 5840 5839 5838 5837 5836 5835 5835 5834 5833 5832 5831 5830 5829 5829 5828 5827
5851 5850 5850 5849 5849 5848 5847 5847 5846 5845 5845 5845 5845 5844 5845 5844 5844 5843 5842 5842 5841 5841 5840 5840 5840 5839 5839 5838 5837 5836 5835 5835 5834 5833 5832 5832 5831 5830 5829 5829 5828 5827 5826 5826
5847 5847 5846 5846 5845 5845 5844 5844 5843 5842 5841 5842 5841 5840 5841 5840 5840 5839 5839 5838 5838 5837 5837 5837 5836 5836 5835 5835 5834 5834 5833 5832 5831 5831 5830 5829 5829 5828 5827 5827 5826 5826 5825 5824
5843 5844 5843 5842 5842 5841 5840 5840 5840 5839 5838 5837 5836 5836 5838 5836 5836 5835 5835 5834 5834 5834 5833 5833 5833 5832 5832 5831 5831 5830 5830 5829 5828 5828 5827 5826 5826 5826 5825 5825 5824 5823 5823 5822
5839 5840 5839 5838 5837 5837 5836 5836 5835 5834 5833 5832 5832 5832 5832 5832 5831 5831 5831 5830 5830 5830 5829 5829 5829 5828 5828 5827 5827 5827 5827 5826 5825 5824 5824 5823 5823 5823 5822 5822 5821 5821 5820 5820
5835 5835 5835 5834 5834 5833 5832 5831 5831 5829 5828 5827 5827 5827 5828 5827 5827 5827 5826 5826 5826 5825 5825 5825 5824 5824 5823 5823 5823 5822 5822 5822 5821 5821 5820 5820 5819 5819 5819 5818 5818 5818 5817 5817
5830 5831 5831 5830 5829 5829 5828 5827 5825 5824 5823 5823 5822 5825 5823 5822 5821 5822 5821 5821 5820 5820 5820 5820 5819 5819 5819 5818 5818 5818 5818 5817 5817 5817 5816 5816 5815 5815 5815 5815 5814 5814 5814 5813
5825 5825 5825 5825 5825 5823 5822 5821 5820 5819 5818 5817 5816 5820 5818 5817 5816 5816 5816 5815 5815 5815 5814 5814 5814 5814 5813 5813 5813 5813 5813 5813 5812 5812 5812 5811 5811 5811 5811 5811 5810 5810 5810 5809
5820 5820 5819 5819 5821 5819 5817 5816 5814 5813 5812 5811 5810 5813 5812 5811 5810 5810 5809 5809 5809 5809 5808 5808 5808 5808 5808 5808 5808 5808 5808 5808 5807 5807 5807 5806 5806 5806 5806 5806 5806 5806 5805 5805
5814 5814 5814 5814 5812 5811 5810 5810 5808 5807 5805 5805 5804 5804 5805 5804 5803 5803 5803 5803 5802 5802 5802 5802 5802 5801 5801 5801 5802 5802 5802 5802 5802 5801 5801 5801 5801 5801 5801 5801 5801 5800 5800 5800
5809 5808 5807 5806 5805 5804 5803 5803 5802 5800 5799 5798 5797 5797 5797 5797 5797 5796 5796 5796 5795 5795 5795 5795 5795 5795 5795 5795 5795 5795 5795 5795 5795 5795 5795 5795 5795 5795 5795 5795 5795 5795 5795 5795
5803 5802 5801 5800 5799 5797 5796 5796 5795 5793 5792 5791 5790 5790 5789 5789 5788 5788 5788 5788 5788 5788 5788 5788 5787 5787 5788 5788 5788 5788 5788 5788 5788 5788 5789 5789 5789 5788 5788 5789 5789 5789 5789 5789
5797 5796 5795 5794 5793 5791 5790 5789 5788 5786 5785 5784 5783 5783 5781 5780 5780 5780 5780 5780 5780 5780 5780 5780 5779 5779 5780 5780 5780 5780 5781 5781 5782 5782 5782 5782 5782 5782 5782 5782 5782 5782 5782 5783
5790 5789 5788 5787 5786 5785 5786 5782 5780 5778 5778 5776 5775 5774 5773 5773 5772 5772 5772 5772 5772 5772 5772 5771 5771 5771 5771 5772 5772 5773 5773 5774 5775 5775 5775 5775 5775 5775 5775 5775 5775 5776 5776 5776
5783 5782 5780 5779 5777 5777 5777 5775 5772 5771 5770 5769 5768 5767 5765 5765 5764 5764 5764 5764 5763 5763 5763 5763 5763 5763 5764 5764 5764 5765 5766 5766 5767 5768 5768 5768 5768 5768 5768 5768 5768 5768 5769 5770
5777 5775 5774 5772 5770 5769 5771 5768 5765 5764 5762 5762 5760 5759 5758 5757 5757 5757 5756 5755 5755 5755 5755 5756 5756 5756 5757 5757 5757 5758 5758 5759 5759 5760 5761 5761 5761 5761 5761 5761 5761 5761 5762 5763
5770 5768 5767 5765 5762 5762 5762 5760 5759 5758 5756 5754 5753 5752 5750 5749 5749 5749 5748 5748 5748 5748 5748 5748 5749 5749 5750 5750 5750 5751 5752 5752 5752 5752 5753 5753 5754 5754 5754 5754 5754 5754 5755 5755
5762 5761 5759 5758 5756 5757 5755 5752 5751 5750 5748 5747 5745 5744 5743 5742 5741 5741 5741 5741 5741 5741 5741 5741 5742 5742 5742 5742 5743 5743 5744 5745 5745 5745 5745 5746 5746 5746 5746 5746 5746 5746 5747 5747
5755 5754 5752 5751 5751 5749 5747 5745 5743 5742 5741 5739 5738 5737 5736 5735 5734 5734 5734 5734 5734 5735 5734 5734 5734 5735 5735 5735 5735 5736 5736 5737 5737 5738 5738 5738 5738 5738 5738 5738 5738 5738 5738 5739
5748 5746 5745 5743 5742 5741 5739 5738 5736 5735 5733 5732 5731 5729 5728 5728 5727 5727 5727 5727 5727 5727 5727 5727 5727 5727 5728 5728 5728 5728 5728 5729 5729 5730 5730 5730 5730 5730 5730 5729 5729 5729 5730 5730
5740 5738 5737 5736 5735 5733 5732 5731 5729 5728 5726 5724 5723 5722 5721 5720 5720 5720 5720 5720 5720 5720 5720 5720 5720 5720 5720 5720 5720 5720 5720 5721 5721 5722 5722 5722 5721 5721 5721 5721 5720 5720 5721 5721
5732 5731 5729 5728 5727 5725 5725 5723 5721 5720 5718 5717 5715 5714 5713 5712 5712 5712 5712 5712 5712 5712 5712 5712 5712 5713 5713 5712 5712 5712 5712 5712 5713 5713 5713 5713 5712 5712 5712 5711 5711 5711 5711 5711